Regional Weather Roundup
Issued by NWS Sterling, VA

Home | Current Version | Previous Version | Text Only | Print | Product List | Glossary On
Versions: 1 2 3 4 5 6 7 8 9 10 11 12 13 14 15 16 17 18 19 20 21 22 23 24 25 26 27 28 29 30 31 32 33 34 35 36 37 38 39 40 41 42 43 44 45 46 47 48 49 50
000
ASUS41 KLWX 261210
RWRLWX

REGIONAL WEATHER ROUNDUP
NATIONAL WEATHER SERVICE BALTIMORE MD/WASHINGTON DC
700 AM EST FRI DEC 26 2014

Note: "FAIR" indicates few or no clouds below 12,000 feet
with no significant weather and/or obstructions to visibility.
 TC=TEMPERATURE CELSIUS

 * =Non NWS site. Station does not report precipitation (e.g. rain,
    snow, etc.), thunder, or fog.

DCZ001-MDZ009-015-VAZ040>042-051-053>054-261300-
WASHINGTON METRO

CITY           SKY/WX    TMP DP  RH WIND       PRES   REMARKS
WASHINGTON NAT CLEAR     37  29  72 SW5       30.30S
DULLES         CLEAR     27  25  92 CALM      30.29R
ANDREWS AFB    CLEAR     31  28  89 S2        30.28R
FT BELVOIR     CLEAR     28  26  94 E1        30.31R
QUANTICO       CLEAR     30  27  88 NW6       30.32R
COLLEGE PARK*  CLEAR     32  30  93 CALM      30.29R
LEESBURG*      CLEAR     32  32 100 NW3       30.29R
GAITHERSBURG*  CLEAR     28  25  86 CALM      30.31R

$$

MDZ006>007-011-014-261300-
BALTIMORE METRO

CITY           SKY/WX    TMP DP  RH WIND       PRES   REMARKS
BWI AIRPORT    PTCLDY    29  26  89 CALM      30.27S
MD SCIENCE CTR   N/A     38  29  70 MISG      30.28S
MARTIN STATE   CLEAR     32  30  93 CALM      30.30R
ANNAPOLIS      CLEAR     33  29  85 CALM      30.29R
FORT MEADE*    CLEAR     27  27 100 CALM      30.31S

$$

MDZ012-015-019>023-261300-
MARYLAND EASTERN SHORE

CITY           SKY/WX    TMP DP  RH WIND       PRES   REMARKS
OCEAN CITY     CLEAR     29  27  92 CALM      30.30R
SALISBURY      CLEAR     32  27  81 CALM      30.30R
BAY BRIDGE AP*   N/A     37  32  81 W3        30.29S
CAMBRIDGE*     CLEAR     32  30  93 CALM      30.29R
EASTON*        CLEAR     34  34 100 CALM      30.33R

$$

MDZ017>025-261300-
SOUTHERN MARYLAND

CITY           SKY/WX    TMP DP  RH WIND       PRES   REMARKS
PATUXENT RIVER CLEAR     29  26  89 W5        30.30R
ST INIGOES     CLEAR     29  25  85 CALM      30.30R
LEONARDTOWN*   CLEAR     30  28  93 CALM      30.32R

$$

MDZ003>005-261300-
NORTH CENTRAL MARYLAND

CITY           SKY/WX    TMP DP  RH WIND       PRES   REMARKS
FREDERICK*     CLEAR     32  25  74 CALM      30.30S
HAGERSTOWN APT CLEAR     33  26  75 S3        30.28R
WESTMINSTER*   PTCLDY    36  28  75 CALM      30.26R

$$

MDZ501>502-261300-
WESTERN MARYLAND

CITY           SKY/WX    TMP DP  RH WIND       PRES   REMARKS
OAKLAND*       CLEAR     30 N/A N/A W8        30.20R WCI  23
CUMBERLAND*    CLEAR     30  30 100 CALM      30.32R

$$

VAZ025>031-261300-
SHENANDOAH VALLEY

CITY           SKY/WX    TMP DP  RH WIND       PRES   REMARKS
WINCHESTER*    CLEAR     30  25  80 CALM      30.28R
FRONT ROYAL*   FAIR      28  27  93 CALM      30.27R
LURAY*         FAIR      30  30 100 CALM      30.27R
NEW MARKET*    FAIR      23  22  96 CALM      30.27R
STAUNTON*      PTCLDY    24  21  90 CALM      30.29R
WAYNESBORO*    FAIR      26  24  91 CALM      30.27R

$$

WVZ021-048>050-054>055-261300-
EASTERN WEST VIRGINIA PANHANDLE

CITY           SKY/WX    TMP DP  RH WIND       PRES   REMARKS
MARTINSBURG    CLEAR     27  22  81 CALM      30.28R
PETERSBURG*    CLEAR     22  21  98 CALM      30.30R

$$

VAZ036>039-050-261300-
CENTRAL FOOTHILLS

CITY           SKY/WX    TMP DP  RH WIND       PRES   REMARKS
CHARLOTTESVILL CLEAR     29  26  89 W3        30.28R
CULPEPER*      CLEAR     25  25 100 CALM      30.30R
ORANGE*        CLEAR     28  27  93 CALM      30.31R
GORDONSVILLE*  FAIR      25  24  95 CALM      30.29R
WARRENTON*     FAIR      24  24 100 CALM      30.29R

$$

VAZ055>057-261300-
NORTH AND CENTRAL PIEDMONT

CITY           SKY/WX    TMP DP  RH WIND       PRES   REMARKS
FREDERICKSBRG* CLEAR     29  29 100 CALM      30.31R
STAFFORD*      CLEAR     26  26 100 CALM      30.35R

$$

NCZ024-NYZ072-PAZ021-071-VAZ022-071-261300-
OTHER REGIONAL OBSERVATIONS

CITY           SKY/WX    TMP DP  RH WIND       PRES   REMARKS
NEW YORK CITY  CLEAR     40  27  59 VRB7      30.24R
PHILADELPHIA   CLEAR     38  28  67 W12       30.29R
PITTSBURGH     PTCLDY    30  27  88 CALM      30.25S
ROANOKE        PTCLDY    30  26  85 N6        30.31R
RICHMOND       CLEAR     33  28  81 CALM      30.31R
RALEIGH        MOCLDY    30  27  88 CALM      30.31R

$$

ANZ530>537-261300-
MARINE OBSERVATIONS

STATION/POSITION TIME  TEMP    WIND        PRES
                       AIR SEA DIR/SP/G
                 (UTC) (F)     (DEG/KT/KT) (MB)
THOMAS PT LIGHT  1200   39 43  310/  2/  3 1026.8R
BALT KEY BRIDGE  1200   39     280/  4/  4 1025.2F
COVE POINT       1200   38     300/  2/  3 1025.8R
LEWISETTA        1200   35 44  270/  4/  5 1026.1R
SOLOMONS ISLAND  1200      43                N/A
PINEY POINT      1200          350/  1/  2   N/A

$$



USA.gov is the U.S. government's official web portal to all federal, state and local government web resources and services.